Location: Ku?niki
(51.4449°N, 17.8974°E)
Time: 13:34:00
(UTC+00:00)

EO-79 - Pass Details

Date: 08 July 2022
Orbit: 588 x 603 km, 98.0° (Epoch: 07 August)

Event Time Altitude Azimuth Distance (km) Brightness Sun altitude
Rises 23:04:07 0° 33° (NNE) 2,863 ? -16.1°
Reaches altitude 10° 23:08:34 10° 78° (ENE) 1,954 ? -16.1°
Maximum altitude 23:09:06 10° 85° (E) 1,940 ? -16.1°
Drops below altitude 10° 23:09:39 10° 93° (E) 1,953 ? -16.1°
Enters shadow 23:12:04 - 121° (ESE) 2,305 ? -16.1°
